カタログに戻る

STARLINK-35005

運用中通信SSO
NORAD 65456·PAYLOAD·🇺🇸 United States

打ち上げ Sep 3, 2025 から Vandenberg Space Force Base

Loading…

次のパス (今後24時間)

TLE

最新Source: CelesTrak SupGP

元期: Sep 14, 2026, 20:46 UTC

1 65456C 25194Y   26257.86576389  .00036533  00000+0  11346-2 0  2574
2 65456  97.2844 107.5676 0001806  90.7738 232.3974 15.33406283    19

AllMySatでSTARLINK-35005をリアルタイム追跡

Download on the App Store